www.pogodaiklimat.ru
ПОГОДА в Кембридже
Время
и дата
09:25 20.05
09:45 20.05
10:05 20.05
10:25 20.05
10:45 20.05
11:05 20.05
11:25 20.05
11:45 20.05
12:05 20.05
12:25 20.05
12:45 20.05
13:05 20.05
13:25 20.05
13:45 20.05
14:05 20.05
14:25 20.05
14:45 20.05
15:00 20.05
15:25 20.05
15:45 20.05
16:05 20.05
16:25 20.05
16:45 20.05
17:05 20.05
17:25 20.05
17:45 20.05
18:05 20.05
18:25 20.05
18:45 20.05
19:05 20.05
19:25 20.05
19:45 20.05
20:05 20.05
20:25 20.05
20:45 20.05
21:05 20.05
21:25 20.05
21:45 20.05
22:05 20.05
22:25 20.05
22:45 20.05
23:05 20.05
23:25 20.05
23:45 20.05
00:05 21.05
00:25 21.05
00:45 21.05
01:05 21.05
Ветер
(напр.,м/с)
Видим. Явления Облачность Т
(С)
Тd
(С)
f
(%)
Тe
(С)
Тes
(С)
Комфортность P
(гПа)
Po
(гПа)
Тmin
(С)
Tmax
(С)
R
(мм)
R24
(мм)
S
(см)
штиль 0 16 км 10/10 690 м +17.0 +17.0 100 +17 +17 1017.8
СВ 2 16 км 10/10 690 м +18.0 +18.0 100 +19 +19 1017.8
СВ 2 16 км 10/10 690 м +18.0 +18.0 100 +19 +19 1017.8
С 2 16 км 10/10 690 м +19.0 +19.0 100 +21 +21 комфорт 1017.8
нст 2 16 км 10/10 720 м +19.0 +19.0 100 +21 +21 комфорт 1017.8
С 3 16 км 10/10 720 м +20.0 +18.0 88 +23 +23 комфорт 1017.4
нст 2 16 км 10/10 720 м +20.0 +18.0 88 +24 +24 комфорт 1017.4
нст 2 16 км 10/10 720 м +20.0 +19.0 94 +24 +24 комфорт 1017.1
С 3 16 км 10/10 750 м +21.0 +19.0 88 +26 +26 душно 1017.1
С 3 16 км 10/10 720 м +21.0 +19.0 88 +26 +26 душно 1016.8
штиль 0 16 км 10/10 720 м +21.0 +19.0 88 +25 +25 комфорт 1016.8
С 4 16 км 10/10 720 м +22.0 +20.0 88 +28 +28 душно 1016.8
СЗ 3 16 км 10/10 750 м +21.0 +19.0 88 +26 +26 душно 1016.8
нст 3 16 км 10/10 780 м +21.0 +20.0 94 +26 +26 душно 1016.8
нст 2 16 км 10/10 810 м +21.0 +20.0 94 +27 +27 душно 1016.4
С 2 16 км 10/10 870 м +21.0 +20.0 94 +27 +27 душно 1016.4
СЗ 2 16 км 10/10 870 м +22.0 +20.0 88 +28 +28 душно 1016.1
нст 3 16 км 10/10 870 м +22.0 +20.0 88 +28 +28 душно 1016.1
СЗ 2 16 км 8/8 870 м +22.0 +20.0 88 +28 +30 душно 1015.8
С 2 16 км ясно +22.0 +20.0 88 +28 +40 душно 1015.8
С 3 16 км ясно +22.0 +20.0 88 +28 +34 душно 1015.8
штиль 0 16 км ясно +22.0 +20.0 88 +28 +38 душно 1015.8
штиль 0 16 км ясно +22.0 +20.0 88 +28 +38 душно 1015.4
штиль 0 16 км ясно +22.0 +20.0 88 +28 +33 душно 1015.1
штиль 0 16 км ясно +22.0 +19.0 83 +27 +33 душно 1015.1
штиль 0 16 км ясно +22.0 +19.0 83 +27 +33 душно 1015.1
штиль 0 16 км ясно +22.0 +20.0 88 +28 +29 душно 1015.1
штиль 0 16 км ясно +22.0 +21.0 94 +28 +30 душно 1015.1
штиль 0 16 км ясно +21.0 +21.0 100 +26 +28 душно 1015.4
штиль 0 16 км ясно +20.0 +20.0 100 +23 +23 комфорт 1015.1
штиль 0 16 км ясно +19.0 +19.0 100 +21 +21 комфорт 1015.4
штиль 0 16 км ясно +18.0 +18.0 100 +18 +18 1015.4
штиль 0 16 км 2/2 810 м +18.0 +18.0 100 +18 +18 1015.8
штиль 0 16 км 2/2 780 м +17.0 +17.0 100 +17 +17 1015.8
ЮВ 3
{5}
16 км 2/2 810 м +17.0 +17.0 100 +17 +17 1016.1
штиль 0 16 км ясно +17.0 +17.0 100 +17 +17 1016.4
штиль 0 16 км ясно +17.0 +17.0 100 +17 +17 1016.4
штиль 0 16 км ясно +17.0 +17.0 100 +17 +17 1016.4
ЮВ 2 3 км дымка ясно +16.0 +16.0 100 +16 +16 1016.1
штиль 0 6 км дымка ясно +16.0 +16.0 100 +16 +16 1016.1
штиль 0 16 км ясно +16.0 +16.0 100 +16 +16 1015.8
штиль 0 16 км ясно +16.0 +16.0 100 +16 +16 1015.8
Ю 2 16 км ясно +15.0 +15.0 100 +15 +15 1015.8
Ю 2 16 км ясно +15.0 +15.0 100 +15 +15 1015.8
нст 2 16 км 8/8 210 м +15.0 +15.0 100 +15 +15 1015.8
Ю 2 16 км 10/10 210 м +15.0 +15.0 100 +15 +15 1015.8
ЮВ 2 16 км 10/10 210 м +15.0 +15.0 100 +15 +15 1015.8
ЮВ 2 16 км 5/5 210 м +14.0 +14.0 100 +13 +13 1015.4
Местоположение метеостанции Cambridge-Dorchester Airport: широта 38.5400 долгота -76.0300 высота над уровнем моря 6 м.
В архиве по умолчанию представлена погода в Кембридже за последние 1-2 суток. Обновление информации о фактической погоде в базе происходит ежечасно! Архивные данные за месяц целиком и за предыдущие месяцы Вы можете получить, выбрав интересующий диапазон дат из раскрывающегося списка и нажав кнопку "Ввод!".
Внимание! Архив погоды МЕТАР в базе сайта по станциям, не включенным в климатический монитор, хранится не более 60 дней. Нет смысла пытаться выбрать более раннюю дату.
*Определитесь, кто Вы:
Внимание! Время в таблицах - местное (без учета летнего времени). Для получения всемирного времени необходимо вычесть поправку, которая равна -5 ч.
Смотрите также архив погоды в соседних городах и на ближайших метеорологических станциях:
Партнеры нашего сайта:      
Пояснения к столбцам:
  • Ветер - указаны скорость ветра в м/с - средняя за 10 мин, порывы в срок и между сроками (в фигурных скобках) и направление, откуда дует ветер: С - северный,
  • СВ - северо-восточный, В - восточный, ЮВ - юго-восточный, Ю - южный, ЮЗ - юго-западный, З - западный, СЗ - северо-западный.
  • Видимость - горизонтальная дальность видимости в метрах или километрах. При видимости от 1 до 10 км при отсутствии осадков обычно наблюдается дымка, при ухудшении видимости до 1 км и менее - туман. В сухую погоду видимость может ухудшаться дымом, пылью или мглою.
  • Явления - указаны атмосферные явления, наблюдавшиеся в срок или в последний час перед сроком; фигурными скобками обозначены явления, наблюдавшиеся между сроками (за 1-3 часа до срока); квадратными скобками обозначены град или гололедные отложения с указанием их диаметра в мм.
  • Облачность - указаны через наклонную черту общая и нижняя облачность в баллах и высота нижней границы облаков в метрах; квадратными скобками обозначены формы облаков: Ci - перистые, Cs - перисто-слоистые, Cc - перисто-кучевые, Ac - высококучевые, As - высокослоистые, Sc - слоисто-кучевые, Ns - слоисто-дождевые, Cu - кучевые, Cb - кучево-дождевые. Подробнее классификацию облаков см. в Атласе облаков (PDF).
  • T - Температура воздуха - температура, измеренная на высоте 2 м над землей.
  • Td - Температура точки росы - температура, при понижении до которой содержащийся в воздухе водяной пар достигнет насыщения.
  • f - Относительная влажность воздуха - влажноcть воздуха, измеренная на высоте 2 м над землей.
  • Te - Эффективная температура - температура, которую ощущает одетый по сезону человек в тени. Характеристика душности погоды. При расчете учитывается влияние влажности воздуха и скорости ветра на теплоощущения человека.
  • Tes - Эффективная температура на солнце - температура, которую ощущает человек, с поправкой на солнечный нагрев. Характеристика знойности погоды. Зависит от высоты солнца над горизонтом, облачности и скорости ветра. Ночью, в пасмурную погоду, а также при ветре 12 м/с и более поправка равна нулю.
  • P - Атмосферное давление - приведенное к уровню моря атмосферное давление.
  • Po - Атмосферное давление - измеренное на уровне метеостанции атмосферное давление.
  • Tmin - Минимальная температура - минимум температуры воздуха на высоте 2 м над землей.
  • Tmax - Максимальная температура - максимум температуры воздуха на высоте 2 м над землей.
  • R - Количество осадков - Количество выпавших осадков за период времени, мм. При наведении курсора мыши на число - период времени, за который выпало указанное количество осадков.
  • R24 - Количество осадков - Количество выпавших осадков за 24 часа, мм.
  • S - Снежный покров - Высота снежного покрова, см. При наведении курсора мыши на число - состояние снежного покрова и степень покрытия местности в баллах.